[[{"header":{"parameterUnit":"m.s-1","parameterCategory":2,"la1":30.2991,"la2":30.254,"lo1":-89.0895,"lo2":-89.0444,"dy":0.0017,"dx":0.0017,"nx":28,"ny":28,"refTime":"2023-08-29T21:00:00:Z","depth":"0","parameterNumber":2,"parameterNumberName":"U-component_of_CURRENTS"},"data":[0,0,0,0,0,0,0,0,0,0,0,0,0,0,0,0,0,0,0,0,0,0,0,0,0,0,0,0,0,0,0,0,0,0,0,0,0,0,0,0,0,0,0,0,0,0,0,0,0,0,0,0,0,0,0,0,0,0,-0.2515,-0.2515,0,-0.2542,-0.2542,-0.2542,-0.25,-0.2499,-0.2497,-0.2496,-0.2472,-0.2473,-0.2473,0,0,0,0,0,0,0,0,0,0,0,0,0,-0.245,-0.2451,-0.2514,-0.2515,-0.2516,-0.2542,-0.2542,-0.2542,-0.25,-0.2498,-0.2497,-0.2495,-0.2472,-0.2473,-0.2473,0,0,0,0,0,0,0,0,0,0,0,0,0,-0.2476,-0.2451,-0.2514,-0.2499,-0.2498,-0.2542,-0.2542,-0.2542,-0.25,-0.2498,-0.2496,-0.2495,-0.2472,-0.2473,-0.2473,-0.2517,0,0,-0.2476,-0.2476,0,0,0,0,0,0,0,0,-0.2474,-0.2478,-0.2501,-0.25,-0.2499,-0.2517,-0.2511,-0.2532,-0.2501,-0.2497,-0.2496,-0.2494,-0.2485,-0.2485,-0.2492,-0.2516,-0.2515,-0.2476,-0.2477,-0.2477,-0.2477,0,0,0,0,0,0,0,-0.2473,-0.2477,-0.2523,-0.2502,-0.2501,-0.2499,-0.25,-0.2515,-0.2499,-0.2498,-0.2495,-0.2502,-0.2484,-0.2492,-0.2491,-0.2515,-0.2476,-0.2477,-0.2477,-0.2478,-0.2549,-0.255,0,0,0,0,0,0,-0.2475,-0.2475,-0.2522,-0.2524,-0.2484,-0.2502,-0.2503,-0.2512,-0.25,-0.2498,-0.2504,-0.25,-0.2491,-0.249,-0.249,-0.252,-0.2477,-0.2478,-0.2478,-0.2547,-0.2549,-0.255,0,0,0,0,0,0,-0.2473,-0.2479,-0.2521,-0.2502,-0.2507,-0.2505,-0.2515,-0.2513,-0.2512,-0.2506,-0.2501,-0.2503,-0.2489,-0.2489,-0.2498,-0.2519,-0.2478,-0.2479,-0.2546,-0.2548,-0.255,-0.2593,0,0,0,0,0,0,-0.2471,-0.2478,-0.2484,-0.2502,-0.2508,-0.2546,-0.2517,-0.2515,-0.2521,-0.2516,-0.2505,-0.2501,-0.2488,-0.2497,-0.2499,-0.2519,-0.248,-0.2544,-0.2547,-0.2549,-0.2589,-0.2596,-0.2601,0,0,0,0,0,-0.2469,-0.2483,-0.2484,-0.2489,-0.2517,-0.2547,-0.255,-0.2541,-0.2523,-0.2531,-0.252,-0.2501,-0.2515,-0.2499,-0.2501,-0.2522,-0.2543,-0.2546,-0.2549,-0.2587,-0.2595,-0.2601,0,0,0,0,0,0,-0.2456,-0.2481,-0.2482,-0.2502,-0.2523,-0.254,-0.2548,-0.2546,-0.2546,-0.2536,-0.2519,-0.2516,-0.2533,-0.2527,-0.251,-0.2551,-0.2526,-0.253,-0.2554,-0.2562,-0.2568,-0.2562,-0.248,0,0,0,0,0,-0.246,-0.2473,-0.2501,-0.2516,-0.2529,-0.2541,-0.255,-0.2549,-0.2555,-0.2552,-0.2545,-0.2543,-0.2553,-0.2554,-0.2561,-0.2586,-0.2565,-0.2602,-0.2608,-0.2613,-0.2611,-0.2601,-0.2605,-0.2561,-0.2561,-0.2561,0,0,-0.2456,-0.2474,-0.248,-0.2514,-0.2528,-0.2559,-0.2541,-0.2561,-0.2581,-0.2552,-0.2568,-0.2564,-0.2565,-0.2589,-0.2596,-0.2582,-0.2615,-0.2617,-0.2621,-0.2616,-0.2604,-0.2608,-0.2612,-0.2563,-0.2562,-0.2562,0,0,-0.2465,-0.2478,-0.2496,-0.2523,-0.2553,-0.2567,-0.2575,-0.2596,-0.2598,-0.2623,-0.2606,-0.2613,-0.2629,-0.2632,-0.2637,-0.2685,-0.2648,-0.2689,-0.2713,-0.2703,-0.2706,-0.2709,-0.2684,-0.2684,-0.269,-0.269,-0.269,0,-0.2459,-0.249,-0.2506,-0.2541,-0.2562,-0.2573,-0.2604,-0.2622,-0.2641,-0.2646,-0.263,-0.2651,-0.2652,-0.2678,-0.2694,-0.2698,-0.2676,-0.2683,-0.2709,-0.2711,-0.2713,-0.2687,-0.2686,-0.2693,-0.2692,-0.2692,-0.2692,0,-0.2491,-0.2517,-0.2533,-0.2578,-0.2606,-0.2633,-0.2667,-0.2685,-0.2687,-0.2697,-0.2715,-0.2715,-0.2719,-0.2732,-0.2728,-0.2749,-0.2725,-0.2717,-0.2686,-0.2719,-0.2691,-0.2689,-0.2696,-0.2695,-0.2695,-0.2694,0,0,-0.246,-0.2538,-0.254,-0.2567,-0.2626,-0.2648,-0.2695,-0.2731,-0.2747,-0.276,-0.2776,-0.2798,-0.278,-0.2785,-0.278,-0.2778,-0.2778,-0.2754,-0.2752,-0.272,-0.2739,-0.2657,-0.2646,-0.2768,-0.2768,-0.2768,-0.2713,0,-0.2473,-0.2534,-0.2573,-0.2625,-0.2657,-0.2695,-0.2733,-0.2767,-0.2788,-0.2809,-0.281,-0.2822,-0.2807,-0.2805,-0.2803,-0.2789,-0.2775,-0.2792,-0.2719,-0.2717,-0.2632,-0.2643,-0.2542,-0.2478,-0.2711,-0.271,-0.271,0,-0.2482,-0.2523,-0.2573,-0.2643,-0.2659,-0.269,-0.2741,-0.2782,-0.2824,-0.2835,-0.2846,-0.2846,-0.2855,-0.2834,-0.2805,-0.2813,-0.2777,-0.2759,-0.2756,-0.266,-0.2631,-0.2484,-0.2466,-0.2441,-0.2707,-0.2707,-0.2708,0,-0.2433,-0.2518,-0.255,-0.2578,-0.2659,-0.268,-0.272,-0.2774,-0.2803,-0.2846,-0.2855,-0.2865,-0.2859,-0.2831,-0.2792,-0.2797,-0.2747,-0.2749,-0.2637,-0.2631,-0.252,-0.2503,-0.2459,-0.2717,-0.2717,-0.2718,-0.2718,0,-0.242,-0.2443,-0.2527,-0.2542,-0.2574,-0.2648,-0.2679,-0.2724,-0.2785,-0.2807,-0.285,-0.2853,-0.2856,-0.2832,-0.2795,-0.27,-0.2742,-0.2634,-0.261,-0.2533,-0.2518,-0.2471,-0.2488,-0.2715,-0.2716,-0.2716,-0.2717,0,-0.2343,-0.2405,-0.2443,-0.2525,-0.2548,-0.2565,-0.2647,-0.267,-0.2738,-0.2771,-0.2782,-0.2836,-0.2798,-0.2781,-0.2737,-0.2684,-0.2563,-0.2573,-0.2474,-0.2438,-0.2304,-0.2328,-0.2242,-0.2175,-0.2441,-0.2439,-0.2437,0,-0.2305,-0.2317,-0.2399,-0.2413,-0.2442,-0.2487,-0.2513,-0.2616,-0.2652,-0.2743,-0.2747,-0.2754,-0.2714,-0.2624,-0.2554,-0.2459,-0.2454,-0.2311,-0.2306,-0.2273,-0.2283,-0.23,-0.2252,-0.218,-0.2176,-0.2172,-0.217,0,-0.2217,-0.2243,-0.227,-0.2303,-0.2333,-0.2367,-0.2425,-0.2447,-0.2562,-0.2589,-0.2601,-0.2584,-0.2538,-0.2406,-0.2315,-0.2251,-0.2246,-0.2239,-0.2235,-0.2093,-0.208,-0.201,-0.2243,-0.2141,-0.2144,-0.2146,-0.2148,-0.2149,-0.2127,-0.2124,-0.2157,-0.2169,-0.2207,-0.221,-0.2184,-0.2261,-0.2278,-0.2296,-0.2391,-0.2339,-0.2301,-0.2154,-0.2083,-0.1952,-0.2021,-0.1897,-0.1933,-0.1958,-0.1875,-0.2034,-0.189,-0.1891,-0.1892,-0.1894,-0.1894,0,-0.2005,-0.201,-0.2021,-0.2027,-0.1998,-0.2064,-0.2088,-0.204,-0.1998,-0.2078,-0.206,-0.2047,-0.192,-0.1895,-0.1779,-0.1683,-0.1648,-0.1649,-0.1665,-0.1633,-0.1785,-0.1755,-0.1539,-0.1539,-0.1539,-0.1539,-0.1539,-0.1539,-0.1939,-0.1898,-0.1902,-0.1801,-0.1798,-0.1706,-0.1677,-0.1639,-0.1662,-0.1629,-0.1667,-0.1756,-0.1748,-0.1808,-0.1658,-0.1564,-0.1523,-0.1471,-0.1499,-0.1637,-0.1664,-0.169,-0.1666,-0.1435,-0.1435,-0.1283,-0.1282,-0.1281]},{"header":{"parameterUnit":"m.s-1","parameterCategory":2,"la1":30.2991,"la2":30.254,"lo1":-89.0895,"lo2":-89.0444,"dy":0.0017,"dx":0.0017,"nx":28,"ny":28,"refTime":"2023-08-29T21:00:00:Z","depth":"0","parameterNumber":3,"parameterNumberName":"V-component_of_CURRENTS"},"data":[0,0,0,0,0,0,0,0,0,0,0,0,0,0,0,0,0,0,0,0,0,0,0,0,0,0,0,0,0,0,0,0,0,0,0,0,0,0,0,0,0,0,0,0,0,0,0,0,0,0,0,0,0,0,0,0,0,0,-0.0433,-0.0433,0,-0.0361,-0.036,-0.036,-0.0306,-0.0305,-0.0305,-0.0305,-0.0183,-0.0181,-0.0178,0,0,0,0,0,0,0,0,0,0,0,0,0,-0.0479,-0.0478,-0.0433,-0.0432,-0.0432,-0.0362,-0.036,-0.0359,-0.0306,-0.0305,-0.0305,-0.0304,-0.0184,-0.0181,-0.0178,0,0,0,0,0,0,0,0,0,0,0,0,0,-0.0438,-0.0478,-0.0433,-0.0397,-0.0393,-0.0362,-0.036,-0.0359,-0.0306,-0.0305,-0.0305,-0.0304,-0.0185,-0.0181,-0.0177,-0.0163,0,0,-0.0164,-0.0162,0,0,0,0,0,0,0,0,-0.044,-0.0436,-0.0403,-0.0399,-0.0395,-0.0343,-0.0332,-0.0291,-0.0306,-0.0338,-0.0305,-0.0304,-0.0233,-0.0225,-0.0212,-0.0158,-0.0153,-0.0164,-0.0161,-0.0159,-0.0158,0,0,0,0,0,0,0,-0.0443,-0.0439,-0.0404,-0.0402,-0.0397,-0.0369,-0.0362,-0.0324,-0.0289,-0.0336,-0.0332,-0.0325,-0.023,-0.0217,-0.0209,-0.0151,-0.0164,-0.016,-0.0157,-0.0156,-0.0063,-0.0063,0,0,0,0,0,0,-0.0456,-0.0442,-0.0406,-0.0402,-0.0417,-0.0369,-0.0362,-0.0359,-0.029,-0.0279,-0.0326,-0.0323,-0.0224,-0.0214,-0.0204,-0.0179,-0.0159,-0.0155,-0.0153,-0.0063,-0.0063,-0.0063,0,0,0,0,0,0,-0.0458,-0.0454,-0.0409,-0.042,-0.0413,-0.0369,-0.0367,-0.0358,-0.0344,-0.0283,-0.0271,-0.032,-0.0223,-0.021,-0.017,-0.0174,-0.0153,-0.015,-0.0063,-0.0063,-0.0063,-0.013,0,0,0,0,0,0,-0.046,-0.0455,-0.046,-0.0422,-0.0413,-0.0398,-0.0367,-0.0357,-0.0341,-0.0337,-0.0274,-0.0262,-0.0222,-0.0177,-0.0166,-0.0167,-0.0146,-0.0063,-0.0063,-0.0063,-0.0128,-0.0133,-0.0137,0,0,0,0,0,-0.0461,-0.0471,-0.0461,-0.0456,-0.042,-0.0399,-0.0392,-0.0357,-0.0342,-0.0341,-0.0295,-0.0264,-0.017,-0.0174,-0.0161,-0.0161,-0.0063,-0.0063,-0.0063,-0.0126,-0.0132,-0.0137,0,0,0,0,0,0,-0.0493,-0.0466,-0.0453,-0.0454,-0.0432,-0.039,-0.0387,-0.0364,-0.0328,-0.0322,-0.0264,-0.0249,-0.0217,-0.018,-0.0185,-0.0135,-0.0112,-0.011,-0.0164,-0.0169,-0.0173,-0.0186,-0.0143,0,0,0,0,0,-0.0504,-0.0505,-0.0473,-0.0475,-0.0467,-0.0429,-0.0416,-0.0394,-0.0358,-0.0342,-0.0298,-0.0249,-0.0208,-0.0182,-0.0143,-0.0114,-0.0074,-0.0106,-0.011,-0.0114,-0.0116,-0.0056,-0.0055,-0.0064,-0.0064,-0.0064,0,0,-0.0518,-0.0502,-0.0504,-0.0482,-0.0462,-0.0461,-0.042,-0.0407,-0.0399,-0.0334,-0.031,-0.0266,-0.0205,-0.0174,-0.0156,-0.0142,-0.0092,-0.0114,-0.0118,-0.0118,-0.0056,-0.0055,-0.0055,-0.0064,-0.0064,-0.0064,0,0,-0.0551,-0.0533,-0.0549,-0.0533,-0.0509,-0.0487,-0.0487,-0.0449,-0.0424,-0.0396,-0.0347,-0.0304,-0.0245,-0.02,-0.0169,-0.0173,-0.0121,-0.0164,-0.019,-0.0133,-0.0132,-0.013,-0.0087,-0.0081,-0.0161,-0.0162,-0.0162,0,-0.0569,-0.0582,-0.0549,-0.0557,-0.0551,-0.0504,-0.0519,-0.0486,-0.0439,-0.0416,-0.0398,-0.0303,-0.0256,-0.0205,-0.0208,-0.0183,-0.0148,-0.0177,-0.0139,-0.0137,-0.0134,-0.009,-0.0083,-0.0165,-0.0164,-0.0164,-0.0164,0,-0.0612,-0.062,-0.0627,-0.0624,-0.0613,-0.0616,-0.0573,-0.0554,-0.052,-0.0479,-0.0424,-0.0355,-0.0296,-0.0276,-0.0242,-0.02,-0.0181,-0.0157,-0.0129,-0.0137,-0.009,-0.0082,-0.017,-0.0168,-0.0167,-0.0167,0,0,-0.0658,-0.066,-0.0662,-0.0673,-0.0649,-0.0646,-0.0631,-0.0599,-0.058,-0.0521,-0.0487,-0.0412,-0.0366,-0.0328,-0.0275,-0.0224,-0.0178,-0.0189,-0.0185,-0.0153,-0.006,-0.0013,0.0001,-0.0147,-0.0145,-0.0144,-0.004,0,-0.0704,-0.0742,-0.0724,-0.0755,-0.0772,-0.0725,-0.0718,-0.0676,-0.0621,-0.0574,-0.0483,-0.0433,-0.0386,-0.0358,-0.0299,-0.0204,-0.0156,-0.0209,-0.0051,-0.0047,-0.0008,0.0013,0.0052,0.0151,-0.003,-0.0029,-0.0028,0,-0.0752,-0.0773,-0.0818,-0.0826,-0.0828,-0.0832,-0.0804,-0.0785,-0.0699,-0.0653,-0.0575,-0.05,-0.041,-0.0374,-0.0215,-0.0251,-0.0168,-0.0096,-0.0089,-0.0014,0.0018,0.0134,0.0175,0.0311,-0.0013,-0.0015,-0.0016,0,-0.0809,-0.0834,-0.0877,-0.0879,-0.088,-0.0882,-0.0872,-0.0809,-0.0788,-0.0693,-0.0662,-0.0539,-0.0474,-0.0351,-0.0195,-0.0205,-0.002,-0.001,0.011,0.0113,0.0194,0.0203,0.0383,0.0093,0.0093,0.0093,0.0092,0,-0.0865,-0.0894,-0.0906,-0.0927,-0.097,-0.094,-0.0952,-0.0914,-0.0854,-0.0825,-0.0706,-0.0646,-0.0465,-0.0331,-0.0203,-0.0009,-0.0019,0.0113,0.0151,0.0171,0.0176,0.0337,0.0381,0.0097,0.0096,0.0095,0.0094,0,-0.092,-0.0928,-0.0979,-0.0996,-0.1001,-0.1028,-0.102,-0.1017,-0.0951,-0.0906,-0.0881,-0.0716,-0.0531,-0.0347,-0.0131,-0.0013,0.0255,0.0224,0.0228,0.0266,0.0496,0.0533,0.0747,0.0835,0.0372,0.0374,0.0376,0,-0.095,-0.0985,-0.1036,-0.107,-0.1079,-0.1107,-0.1125,-0.1076,-0.1064,-0.0941,-0.0923,-0.0733,-0.0585,-0.0244,0.0002,0.0248,0.0348,0.0418,0.0411,0.0528,0.0598,0.0623,0.0682,0.0487,0.049,0.0492,0.0493,0,-0.1009,-0.1029,-0.1072,-0.1147,-0.1182,-0.122,-0.1228,-0.1232,-0.116,-0.1094,-0.0958,-0.0823,-0.0481,-0.016,0.0162,0.0314,0.053,0.0465,0.0601,0.0719,0.0746,0.0842,0.0383,0.0511,0.0509,0.0508,0.0507,0.0506,-0.1045,-0.1098,-0.1156,-0.122,-0.1267,-0.1305,-0.1317,-0.1299,-0.1257,-0.1127,-0.0991,-0.0749,-0.0297,0.018,0.0352,0.0728,0.0684,0.0836,0.0874,0.0891,0.0976,0.0546,0.0707,0.0707,0.0706,0.0706,0.0705,0,-0.1089,-0.1145,-0.1219,-0.1292,-0.1342,-0.1348,-0.1365,-0.1338,-0.127,-0.1119,-0.0951,-0.0437,0.0007,0.0413,0.0935,0.1126,0.1166,0.1221,0.127,0.1314,0.0959,0.0964,0.1172,0.1172,0.1172,0.1172,0.1172,0.1172,-0.1116,-0.1195,-0.1236,-0.1327,-0.1372,-0.14,-0.1398,-0.1331,-0.1217,-0.0934,-0.0645,-0.0405,0.0178,0.1008,0.1472,0.1509,0.1659,0.1643,0.1726,0.1477,0.1443,0.1412,0.143,0.1733,0.1733,0.2079,0.2083,0.2085]}],[{"header":{"parameterUnit":"m.s-1","parameterCategory":2,"la1":30.2991,"la2":30.254,"lo1":-89.0895,"lo2":-89.0444,"dy":0.0017,"dx":0.0017,"nx":28,"ny":28,"refTime":"2023-08-29T21:00:00:Z","depth":"2","parameterNumber":2,"parameterNumberName":"U-component_of_CURRENTS"},"data":[0,0,0,0,0,0,0,0,0,0,0,0,0,0,0,0,0,0,0,0,0,0,0,0,0,0,0,0,0,0,0,0,0,0,0,0,0,0,0,0,0,0,0,0,0,0,0,0,0,0,0,0,0,0,0,0,0,0,-0.2395,-0.2395,0,-0.2423,-0.2423,-0.2423,-0.2389,-0.2388,-0.2387,-0.2386,-0.2369,-0.237,-0.237,0,0,0,0,0,0,0,0,0,0,0,0,0,-0.2334,-0.2335,-0.2395,-0.2395,-0.2396,-0.2423,-0.2423,-0.2423,-0.239,-0.2388,-0.2387,-0.2386,-0.2369,-0.237,-0.237,0,0,0,0,0,0,0,0,0,0,0,0,0,-0.2359,-0.2335,-0.2395,-0.2384,-0.2383,-0.2423,-0.2423,-0.2423,-0.239,-0.2388,-0.2387,-0.2385,-0.2369,-0.2369,-0.237,-0.2407,0,0,-0.2373,-0.2373,0,0,0,0,0,0,0,0,-0.2357,-0.2361,-0.2385,-0.2385,-0.2384,-0.2403,-0.2395,-0.2416,-0.239,-0.2385,-0.2386,-0.2384,-0.2379,-0.2379,-0.2385,-0.2406,-0.2405,-0.2373,-0.2373,-0.2374,-0.2374,0,0,0,0,0,0,0,-0.2356,-0.236,-0.2404,-0.2386,-0.2385,-0.2385,-0.2386,-0.2399,-0.2388,-0.2386,-0.2384,-0.2391,-0.2378,-0.2384,-0.2384,-0.2405,-0.2373,-0.2373,-0.2374,-0.2374,-0.2443,-0.2444,0,0,0,0,0,0,-0.2357,-0.2358,-0.2403,-0.2405,-0.2369,-0.2387,-0.2389,-0.2397,-0.2389,-0.2387,-0.2392,-0.2389,-0.2384,-0.2383,-0.2384,-0.2416,-0.2374,-0.2374,-0.2375,-0.2442,-0.2443,-0.2445,0,0,0,0,0,0,-0.2356,-0.2361,-0.2402,-0.2383,-0.2389,-0.239,-0.2399,-0.2398,-0.24,-0.2395,-0.2391,-0.2395,-0.2383,-0.2382,-0.2394,-0.2415,-0.2375,-0.2375,-0.244,-0.2442,-0.2444,-0.2488,0,0,0,0,0,0,-0.2354,-0.236,-0.2367,-0.2384,-0.239,-0.2425,-0.2401,-0.24,-0.2408,-0.2404,-0.2396,-0.2393,-0.2381,-0.2393,-0.2395,-0.2416,-0.2376,-0.2438,-0.2441,-0.2443,-0.2485,-0.2491,-0.2497,0,0,0,0,0,-0.2352,-0.2365,-0.2367,-0.2372,-0.2398,-0.2427,-0.243,-0.2424,-0.241,-0.2418,-0.2411,-0.2393,-0.241,-0.2395,-0.2396,-0.2418,-0.2437,-0.244,-0.2443,-0.2482,-0.249,-0.2497,0,0,0,0,0,0,-0.234,-0.2363,-0.2366,-0.2384,-0.2406,-0.2421,-0.243,-0.243,-0.2433,-0.2425,-0.2411,-0.2409,-0.2428,-0.2422,-0.2405,-0.2447,-0.2421,-0.2425,-0.245,-0.2458,-0.2464,-0.2458,-0.2377,0,0,0,0,0,-0.2344,-0.2357,-0.2383,-0.2398,-0.241,-0.2423,-0.2433,-0.2433,-0.244,-0.2439,-0.2435,-0.2435,-0.2446,-0.2448,-0.2455,-0.248,-0.2459,-0.2496,-0.2502,-0.2507,-0.2505,-0.2497,-0.2501,-0.2455,-0.2455,-0.2455,0,0,-0.2341,-0.2358,-0.2363,-0.2396,-0.241,-0.2439,-0.2424,-0.2445,-0.2465,-0.2439,-0.2459,-0.2457,-0.2458,-0.2482,-0.249,-0.2476,-0.251,-0.2511,-0.2515,-0.251,-0.25,-0.2504,-0.2508,-0.2457,-0.2456,-0.2456,0,0,-0.2349,-0.2362,-0.2379,-0.2404,-0.2435,-0.2448,-0.2456,-0.2479,-0.2483,-0.251,-0.2496,-0.2505,-0.2522,-0.2526,-0.2531,-0.2577,-0.2543,-0.2582,-0.2607,-0.2599,-0.2602,-0.2605,-0.2582,-0.2582,-0.2584,-0.2584,-0.2584,0,-0.2345,-0.2372,-0.2389,-0.242,-0.2442,-0.2455,-0.2483,-0.2503,-0.2524,-0.253,-0.2519,-0.2542,-0.2544,-0.257,-0.2587,-0.259,-0.2571,-0.2577,-0.2605,-0.2607,-0.2609,-0.2585,-0.2584,-0.2587,-0.2587,-0.2586,-0.2586,0,-0.2372,-0.2397,-0.2412,-0.2455,-0.2482,-0.2508,-0.2542,-0.2562,-0.2568,-0.2579,-0.2601,-0.2604,-0.261,-0.2623,-0.2621,-0.2643,-0.262,-0.2613,-0.2582,-0.2616,-0.2589,-0.2588,-0.259,-0.2589,-0.2589,-0.2588,0,0,-0.2345,-0.2416,-0.2419,-0.2443,-0.2501,-0.2522,-0.2568,-0.2604,-0.2622,-0.2639,-0.2657,-0.2682,-0.2668,-0.2673,-0.267,-0.2671,-0.2674,-0.265,-0.2648,-0.2619,-0.2642,-0.2559,-0.2549,-0.2667,-0.2667,-0.2667,-0.2616,0,-0.2356,-0.2412,-0.2449,-0.2497,-0.2527,-0.2565,-0.2603,-0.2637,-0.2661,-0.2685,-0.269,-0.2705,-0.2693,-0.2695,-0.2695,-0.2684,-0.2673,-0.2688,-0.2621,-0.2618,-0.2533,-0.2546,-0.2359,-0.2292,-0.2615,-0.2614,-0.2614,0,-0.2364,-0.2401,-0.2448,-0.2512,-0.2528,-0.2559,-0.261,-0.2651,-0.2695,-0.2709,-0.2724,-0.2728,-0.274,-0.2723,-0.27,-0.2707,-0.2676,-0.266,-0.2658,-0.2561,-0.2533,-0.2312,-0.2277,-0.2611,-0.2612,-0.2612,-0.2612,0,-0.2318,-0.2395,-0.2426,-0.2452,-0.2528,-0.255,-0.2591,-0.2646,-0.2675,-0.2721,-0.2732,-0.2746,-0.2745,-0.2722,-0.2689,-0.2695,-0.2651,-0.2653,-0.2544,-0.2538,-0.2355,-0.2332,-0.2626,-0.2626,-0.2626,-0.2626,-0.2626,0,-0.2305,-0.2327,-0.2405,-0.2419,-0.2451,-0.2522,-0.2554,-0.26,-0.2661,-0.2683,-0.2729,-0.2733,-0.2744,-0.2724,-0.2693,-0.2604,-0.2646,-0.2541,-0.2518,-0.2366,-0.2345,-0.2606,-0.2604,-0.2624,-0.2624,-0.2625,-0.2625,0,-0.2234,-0.2292,-0.2326,-0.2404,-0.2427,-0.2446,-0.2524,-0.2548,-0.2616,-0.265,-0.2663,-0.2718,-0.2685,-0.2675,-0.2638,-0.2588,-0.2529,-0.2484,-0.2299,-0.2255,-0.2421,-0.2423,-0.2361,-0.2358,-0.2355,-0.2353,-0.2351,0,-0.2199,-0.221,-0.2287,-0.23,-0.2329,-0.2374,-0.24,-0.2499,-0.2532,-0.2621,-0.2625,-0.2637,-0.2597,-0.2516,-0.2443,-0.2353,-0.2434,-0.2136,-0.2118,-0.2409,-0.2394,-0.24,-0.2405,-0.1893,-0.1887,-0.1883,-0.1879,0,-0.2117,-0.2143,-0.2168,-0.22,-0.2229,-0.2258,-0.2314,-0.2333,-0.2442,-0.2467,-0.2477,-0.246,-0.241,-0.2235,-0.215,-0.2081,-0.2141,-0.204,-0.2378,-0.1997,-0.1965,-0.1952,-0.1972,-0.1838,-0.1842,-0.1845,-0.1848,-0.1849,-0.2036,-0.2033,-0.2063,-0.2075,-0.2111,-0.211,-0.2083,-0.215,-0.2162,-0.2167,-0.2259,-0.2166,-0.2153,-0.1915,-0.1805,-0.1726,-0.1881,-0.1791,-0.1806,-0.1826,-0.1788,-0.1755,-0.158,-0.1583,-0.1585,-0.1587,-0.1588,0,-0.1922,-0.1927,-0.1936,-0.194,-0.1911,-0.1975,-0.1992,-0.1936,-0.1887,-0.193,-0.1901,-0.17,-0.1577,-0.1567,-0.1381,-0.1345,-0.1342,-0.1284,-0.1278,-0.1318,-0.1355,-0.1295,-0.0955,-0.0953,-0.0951,-0.0949,0,0,-0.186,-0.182,-0.1822,-0.1725,-0.1723,-0.1632,-0.1601,-0.1548,-0.1538,-0.145,-0.1407,-0.1504,-0.153,-0.125,-0.1178,-0.1035,-0.1168,-0.098,-0.1489,-0.1524,-0.1558,-0.1647,-0.16,0,0,0,0,0]},{"header":{"parameterUnit":"m.s-1","parameterCategory":2,"la1":30.2991,"la2":30.254,"lo1":-89.0895,"lo2":-89.0444,"dy":0.0017,"dx":0.0017,"nx":28,"ny":28,"refTime":"2023-08-29T21:00:00:Z","depth":"2","parameterNumber":3,"parameterNumberName":"V-component_of_CURRENTS"},"data":[0,0,0,0,0,0,0,0,0,0,0,0,0,0,0,0,0,0,0,0,0,0,0,0,0,0,0,0,0,0,0,0,0,0,0,0,0,0,0,0,0,0,0,0,0,0,0,0,0,0,0,0,0,0,0,0,0,0,-0.0295,-0.0294,0,-0.0227,-0.0226,-0.0226,-0.0177,-0.0176,-0.0176,-0.0176,-0.0059,-0.0057,-0.0054,0,0,0,0,0,0,0,0,0,0,0,0,0,-0.0335,-0.0335,-0.0295,-0.0294,-0.0293,-0.0227,-0.0226,-0.0225,-0.0177,-0.0176,-0.0176,-0.0175,-0.006,-0.0057,-0.0054,0,0,0,0,0,0,0,0,0,0,0,0,0,-0.0297,-0.0335,-0.0295,-0.0262,-0.0258,-0.0228,-0.0226,-0.0225,-0.0177,-0.0176,-0.0176,-0.0175,-0.0061,-0.0057,-0.0053,-0.0038,0,0,-0.004,-0.0039,0,0,0,0,0,0,0,0,-0.03,-0.0296,-0.0267,-0.0264,-0.026,-0.021,-0.0198,-0.016,-0.0177,-0.0207,-0.0176,-0.0175,-0.0106,-0.0098,-0.0086,-0.0032,-0.0027,-0.004,-0.0038,-0.0036,-0.0035,0,0,0,0,0,0,0,-0.0302,-0.0298,-0.0267,-0.0266,-0.0262,-0.0234,-0.0229,-0.0191,-0.0159,-0.0204,-0.0201,-0.0194,-0.0104,-0.0091,-0.0083,-0.0026,-0.004,-0.0037,-0.0034,-0.0032,0.0056,0.0056,0,0,0,0,0,0,-0.0315,-0.0301,-0.0269,-0.0265,-0.028,-0.0234,-0.0228,-0.0226,-0.016,-0.015,-0.0195,-0.0192,-0.0098,-0.0088,-0.0079,-0.0056,-0.0036,-0.0032,-0.003,0.0056,0.0056,0.0056,0,0,0,0,0,0,-0.0316,-0.0313,-0.0272,-0.0282,-0.0275,-0.0234,-0.0233,-0.0225,-0.0213,-0.0154,-0.0143,-0.0191,-0.0097,-0.0085,-0.0047,-0.0051,-0.003,-0.0026,0.0056,0.0056,0.0056,-0.0011,0,0,0,0,0,0,-0.0318,-0.0314,-0.0319,-0.0283,-0.0275,-0.0262,-0.0233,-0.0224,-0.021,-0.0206,-0.0146,-0.0135,-0.0096,-0.0054,-0.0043,-0.0045,-0.0023,0.0057,0.0056,0.0056,-0.0008,-0.0013,-0.0017,0,0,0,0,0,-0.032,-0.033,-0.032,-0.0316,-0.0283,-0.0263,-0.0256,-0.0225,-0.0211,-0.0211,-0.0168,-0.0137,-0.0048,-0.005,-0.0038,-0.0039,0.0057,0.0056,0.0056,-0.0006,-0.0012,-0.0017,0,0,0,0,0,0,-0.0349,-0.0325,-0.0313,-0.0315,-0.0295,-0.0255,-0.0253,-0.0231,-0.0198,-0.0194,-0.0137,-0.0123,-0.0093,-0.0057,-0.0061,-0.0014,0.0009,0.0011,-0.0043,-0.0048,-0.0052,-0.0064,-0.002,0,0,0,0,0,-0.036,-0.0362,-0.0332,-0.0335,-0.0328,-0.0293,-0.0281,-0.0261,-0.0226,-0.0212,-0.017,-0.0124,-0.0085,-0.006,-0.0023,0.0005,0.0045,0.0013,0.0008,0.0004,0.0003,0.0061,0.0062,0.0055,0.0055,0.0055,0,0,-0.0374,-0.036,-0.0361,-0.0342,-0.0324,-0.0323,-0.0284,-0.0274,-0.0266,-0.0204,-0.0182,-0.0141,-0.0082,-0.0053,-0.0036,-0.0022,0.0025,0.0004,-0.0001,0.0001,0.0061,0.0062,0.0062,0.0055,0.0055,0.0055,0,0,-0.0406,-0.039,-0.0405,-0.039,-0.0369,-0.0348,-0.0349,-0.0314,-0.0291,-0.0266,-0.022,-0.018,-0.0124,-0.008,-0.005,-0.0056,-0.0005,-0.0048,-0.0073,-0.0017,-0.0016,-0.0015,0.0027,0.0032,-0.0045,-0.0045,-0.0045,0,-0.0424,-0.0436,-0.0406,-0.0413,-0.0408,-0.0365,-0.0379,-0.0349,-0.0306,-0.0284,-0.0269,-0.018,-0.0134,-0.0085,-0.009,-0.0066,-0.0031,-0.006,-0.0024,-0.0021,-0.0018,0.0024,0.0031,-0.0048,-0.0048,-0.0048,-0.0047,0,-0.0464,-0.0472,-0.0479,-0.0476,-0.0467,-0.0471,-0.0431,-0.0414,-0.0384,-0.0345,-0.0295,-0.023,-0.0175,-0.0156,-0.0124,-0.0084,-0.0066,-0.0041,-0.0013,-0.0022,0.0023,0.0032,-0.0053,-0.0052,-0.0051,-0.005,0,0,-0.0509,-0.051,-0.0512,-0.0523,-0.0501,-0.0498,-0.0486,-0.0456,-0.0438,-0.0385,-0.0354,-0.0284,-0.0242,-0.0206,-0.0155,-0.0106,-0.0063,-0.0073,-0.0069,-0.0038,0.0051,0.0092,0.0106,-0.0032,-0.0031,-0.003,0.0071,0,-0.0552,-0.0588,-0.0571,-0.06,-0.0617,-0.0573,-0.0568,-0.0529,-0.0478,-0.0434,-0.035,-0.0304,-0.026,-0.0235,-0.0179,-0.0088,-0.0042,-0.0093,0.0061,0.0065,0.0099,0.0117,0.0093,0.0185,0.008,0.0082,0.0083,0,-0.0599,-0.0617,-0.0661,-0.0667,-0.0669,-0.0675,-0.0649,-0.0632,-0.0551,-0.051,-0.0437,-0.0367,-0.0283,-0.025,-0.0097,-0.0133,-0.0053,0.0017,0.0023,0.0092,0.0123,0.0181,0.0205,0.0098,0.0097,0.0096,0.0095,0,-0.0653,-0.0676,-0.0717,-0.0718,-0.072,-0.0723,-0.0714,-0.0656,-0.0637,-0.0549,-0.0521,-0.0404,-0.0344,-0.0226,-0.0078,-0.0087,0.009,0.0101,0.0212,0.0216,0.0243,0.0247,0.0201,0.0201,0.0201,0.02,0.02,0,-0.0706,-0.0734,-0.0745,-0.0765,-0.0807,-0.0778,-0.0792,-0.0757,-0.0701,-0.0675,-0.0563,-0.0507,-0.0335,-0.0208,-0.0085,0.0099,0.0092,0.0215,0.0252,0.0218,0.0218,0.0182,0.0178,0.0204,0.0203,0.0203,0.0202,0,-0.076,-0.0768,-0.0815,-0.0831,-0.0837,-0.0864,-0.0858,-0.0856,-0.0795,-0.0754,-0.0731,-0.0575,-0.04,-0.0225,-0.0017,0.0095,0.026,0.0321,0.0264,0.0293,0.0344,0.0336,0.0455,0.0458,0.046,0.0462,0.0463,0,-0.079,-0.0823,-0.0871,-0.0905,-0.0914,-0.0942,-0.0961,-0.0914,-0.0902,-0.0787,-0.077,-0.0592,-0.0451,-0.0127,0.0098,0.0331,0.0321,0.0438,0.0423,0.035,0.0374,0.0362,0.0351,0.0426,0.0427,0.0428,0.0429,0,-0.0848,-0.0868,-0.0908,-0.0981,-0.1015,-0.105,-0.1059,-0.1062,-0.0994,-0.0932,-0.0803,-0.0675,-0.036,-0.0085,0.0215,0.0347,0.0402,0.0464,0.0423,0.0365,0.0331,0.0351,0.034,0.0437,0.0436,0.0435,0.0435,0.0434,-0.0885,-0.0936,-0.0991,-0.1053,-0.1098,-0.1134,-0.1143,-0.1123,-0.1084,-0.0954,-0.0831,-0.0602,-0.0346,0.0101,0.0304,0.0496,0.0493,0.0543,0.0537,0.053,0.0508,0.048,0.0609,0.0609,0.0609,0.0609,0.0609,0,-0.0931,-0.0984,-0.1053,-0.1123,-0.117,-0.1178,-0.1191,-0.1157,-0.109,-0.0942,-0.0781,-0.0467,-0.0161,0.0095,0.0406,0.0587,0.0557,0.0611,0.0535,0.0527,0.0521,0.0494,0.0593,0.0593,0.0593,0.0594,0,0,-0.0958,-0.1033,-0.107,-0.1156,-0.1201,-0.1227,-0.1224,-0.1144,-0.103,-0.0856,-0.0679,-0.044,-0.0133,0.0084,0.0305,0.0458,0.0443,0.047,0.0468,0.0345,0.0336,0.0472,0.0423,0,0,0,0,0]}],[{"header":{"parameterUnit":"m.s-1","parameterCategory":2,"la1":30.2991,"la2":30.254,"lo1":-89.0895,"lo2":-89.0444,"dy":0.0017,"dx":0.0017,"nx":28,"ny":28,"refTime":"2023-08-29T21:00:00:Z","depth":"4","parameterNumber":2,"parameterNumberName":"U-component_of_CURRENTS"},"data":[0,0,0,0,0,0,0,0,0,0,0,0,0,0,0,0,0,0,0,0,0,0,0,0,0,0,0,0,0,0,0,0,0,0,0,0,0,0,0,0,0,0,0,0,0,0,0,0,0,0,0,0,0,0,0,0,0,0,-0.1706,-0.1707,0,-0.177,-0.1771,-0.1772,-0.1802,-0.1802,-0.1802,-0.1802,-0.1852,-0.1854,-0.1855,0,0,0,0,0,0,0,0,0,0,0,0,0,-0.162,-0.1621,-0.1706,-0.1707,-0.1708,-0.177,-0.1771,-0.1772,-0.1802,-0.1802,-0.1802,-0.1802,-0.1852,-0.1853,-0.1855,0,0,0,0,0,0,0,0,0,0,0,0,0,-0.1666,-0.1622,-0.1706,-0.1732,-0.1735,-0.177,-0.1771,-0.1772,-0.1802,-0.1802,-0.1802,-0.1802,-0.1852,-0.1853,-0.1855,-0.1863,0,0,-0.1861,-0.1862,0,0,0,0,0,0,0,0,-0.1664,-0.1669,-0.1727,-0.173,-0.1734,-0.178,-0.1759,-0.1802,-0.1802,-0.1775,-0.1802,-0.1802,-0.1828,-0.1832,-0.1841,-0.1866,-0.1868,-0.1861,-0.1862,-0.1863,-0.1863,0,0,0,0,0,0,0,-0.166,-0.1667,-0.173,-0.1728,-0.1732,-0.1744,-0.175,-0.1767,-0.1798,-0.1777,-0.178,-0.1789,-0.1829,-0.1839,-0.1843,-0.1869,-0.1861,-0.1863,-0.1864,-0.1864,-0.1969,-0.197,0,0,0,0,0,0,-0.1655,-0.1664,-0.1728,-0.1732,-0.17,-0.1745,-0.1752,-0.1763,-0.1798,-0.1804,-0.1789,-0.1791,-0.1836,-0.184,-0.1844,-0.1919,-0.1863,-0.1865,-0.1866,-0.1967,-0.1969,-0.1971,0,0,0,0,0,0,-0.1653,-0.1661,-0.1725,-0.1701,-0.171,-0.1747,-0.1759,-0.1765,-0.1801,-0.1808,-0.1813,-0.1823,-0.1836,-0.1842,-0.1885,-0.1918,-0.1865,-0.1867,-0.1965,-0.1968,-0.197,-0.2027,0,0,0,0,0,0,-0.1651,-0.1659,-0.168,-0.17,-0.1711,-0.1763,-0.1759,-0.1766,-0.1806,-0.1809,-0.1838,-0.1841,-0.1837,-0.1883,-0.1887,-0.192,-0.1869,-0.1963,-0.1966,-0.1969,-0.2023,-0.2031,-0.2038,0,0,0,0,0,-0.1647,-0.1668,-0.1681,-0.169,-0.1734,-0.1765,-0.1772,-0.1797,-0.1808,-0.1829,-0.1852,-0.1842,-0.1905,-0.1886,-0.189,-0.1925,-0.1962,-0.1966,-0.1969,-0.2019,-0.2029,-0.2038,0,0,0,0,0,0,-0.1643,-0.1674,-0.1688,-0.1719,-0.175,-0.1771,-0.1799,-0.1815,-0.185,-0.1861,-0.1864,-0.1869,-0.1918,-0.1917,-0.1895,-0.1964,-0.1932,-0.1937,-0.1969,-0.1978,-0.1985,-0.1974,-0.187,0,0,0,0,0,-0.1652,-0.1677,-0.1706,-0.1735,-0.1753,-0.1782,-0.1805,-0.1823,-0.185,-0.1867,-0.1888,-0.1911,-0.1934,-0.1952,-0.197,-0.2011,-0.1987,-0.2036,-0.2044,-0.205,-0.2045,-0.2042,-0.2048,-0.1983,-0.1983,-0.1983,0,0,-0.1659,-0.168,-0.1696,-0.1737,-0.1764,-0.1797,-0.1797,-0.1839,-0.1873,-0.1867,-0.1927,-0.1941,-0.1951,-0.1995,-0.2017,-0.2,-0.2057,-0.2055,-0.206,-0.2051,-0.2046,-0.2052,-0.2057,-0.1986,-0.1985,-0.1985,0,0,-0.1675,-0.1706,-0.1731,-0.1761,-0.1808,-0.1827,-0.1846,-0.1886,-0.1915,-0.1968,-0.1971,-0.2005,-0.2048,-0.2057,-0.2066,-0.2127,-0.2096,-0.2141,-0.2172,-0.217,-0.2175,-0.2179,-0.2156,-0.2157,-0.2146,-0.2146,-0.2146,0,-0.1686,-0.1719,-0.1745,-0.1779,-0.1809,-0.1843,-0.1879,-0.1913,-0.1965,-0.1987,-0.1997,-0.2057,-0.2073,-0.211,-0.2136,-0.2143,-0.2129,-0.2136,-0.2178,-0.2181,-0.2184,-0.216,-0.2161,-0.2149,-0.2149,-0.2149,-0.2148,0,-0.1712,-0.1753,-0.1773,-0.1825,-0.1861,-0.19,-0.1945,-0.1989,-0.2028,-0.2052,-0.2108,-0.2129,-0.2157,-0.2178,-0.2179,-0.2215,-0.2193,-0.2185,-0.215,-0.2194,-0.2166,-0.2166,-0.2154,-0.2153,-0.2152,-0.2151,0,0,-0.1692,-0.1775,-0.1785,-0.1818,-0.1891,-0.1917,-0.1983,-0.2036,-0.2073,-0.2126,-0.2165,-0.2216,-0.2221,-0.2231,-0.2239,-0.2247,-0.2264,-0.2233,-0.2231,-0.2201,-0.2245,-0.2095,-0.208,-0.2265,-0.2265,-0.2265,-0.2217,0,-0.1706,-0.177,-0.1812,-0.1879,-0.1914,-0.197,-0.2022,-0.2077,-0.2126,-0.2173,-0.2201,-0.2242,-0.2243,-0.2263,-0.2273,-0.2268,-0.2266,-0.2277,-0.2215,-0.2213,-0.2066,-0.2075,-0.2267,-0.2216,-0.2216,-0.2216,-0.2216,0,-0.1709,-0.1754,-0.1819,-0.1901,-0.1922,-0.1971,-0.205,-0.2103,-0.2173,-0.2206,-0.2246,-0.2267,-0.2299,-0.2293,-0.2289,-0.2296,-0.2276,-0.2264,-0.2261,-0.2097,-0.2061,-0.2165,-0.2215,-0.2215,-0.2215,-0.2215,-0.2215,0,-0.166,-0.1754,-0.1806,-0.1837,-0.1934,-0.1979,-0.2036,-0.2114,-0.2154,-0.2229,-0.2252,-0.229,-0.2307,-0.2298,-0.2281,-0.2291,-0.2257,-0.2262,-0.21,-0.209,-0.2215,-0.2212,-0.2246,-0.2246,-0.2246,-0.2246,-0.2246,0,-0.1636,-0.1681,-0.1793,-0.1819,-0.188,-0.1962,-0.2024,-0.2086,-0.2164,-0.2192,-0.2262,-0.2267,-0.2312,-0.2301,-0.2281,-0.2172,-0.2251,-0.2091,-0.2063,-0.2241,-0.2241,-0.2214,-0.2211,-0.2244,-0.2245,-0.2245,-0.2245,0,-0.1562,-0.1641,-0.1704,-0.1819,-0.1858,-0.1902,-0.2012,-0.2044,-0.2132,-0.2171,-0.2194,-0.2255,-0.2225,-0.2237,-0.2216,-0.2144,-0.2078,-0.2022,-0.2198,-0.2183,-0.1914,-0.1915,-0.1829,-0.1823,-0.1818,-0.1814,-0.1811,0,-0.1524,-0.1552,-0.1683,-0.1719,-0.1776,-0.1855,-0.1898,-0.2012,-0.2039,-0.2132,-0.2127,-0.2151,-0.2165,-0.1992,-0.2036,-0.196,-0.1942,-0.1897,-0.1916,-0.1888,-0.187,-0.1879,-0.1886,-0.1803,-0.1802,-0.18,-0.1799,0,-0.1444,-0.1506,-0.1556,-0.163,-0.1693,-0.1741,-0.1817,-0.1819,-0.1928,-0.2035,-0.1984,-0.1955,-0.1912,-0.1877,-0.1825,-0.1783,-0.1923,-0.1846,-0.1856,-0.1873,-0.1855,-0.1844,-0.1858,-0.1782,-0.1785,-0.1786,-0.1787,0,-0.1381,-0.1397,-0.1469,-0.1514,-0.1588,-0.1592,-0.1651,-0.1666,-0.1703,-0.1818,-0.1796,-0.1816,-0.1886,-0.1782,-0.174,-0.1676,-0.1655,-0.1606,-0.1629,-0.1648,-0.1612,-0.1564,-0.136,0,0,0,0,0,-0.1306,-0.1305,-0.1343,-0.1383,-0.1446,-0.148,-0.1573,-0.1632,-0.1744,-0.1657,-0.1719,-0.1669,-0.1598,-0.1616,-0.1508,-0.1662,-0.1667,-0.1531,-0.1625,-0.1687,-0.1707,-0.1682,0,0,0,0,0,0,-0.1255,-0.1288,-0.1296,-0.125,-0.1248,-0.1293,-0.1342,-0.1424,-0.138,-0.1503,-0.1462,-0.1562,-0.1509,-0.1619,-0.1469,-0.1474,-0.1497,-0.1564,-0.1559,-0.1676,-0.1694,-0.171,-0.1691,0,0,0,0,0]},{"header":{"parameterUnit":"m.s-1","parameterCategory":2,"la1":30.2991,"la2":30.254,"lo1":-89.0895,"lo2":-89.0444,"dy":0.0017,"dx":0.0017,"nx":28,"ny":28,"refTime":"2023-08-29T21:00:00:Z","depth":"4","parameterNumber":3,"parameterNumberName":"V-component_of_CURRENTS"},"data":[0,0,0,0,0,0,0,0,0,0,0,0,0,0,0,0,0,0,0,0,0,0,0,0,0,0,0,0,0,0,0,0,0,0,0,0,0,0,0,0,0,0,0,0,0,0,0,0,0,0,0,0,0,0,0,0,0,0,-0.0158,-0.0158,0,-0.0116,-0.0115,-0.0115,-0.0081,-0.0081,-0.0081,-0.0081,0.0009,0.0011,0.0013,0,0,0,0,0,0,0,0,0,0,0,0,0,-0.0175,-0.0175,-0.0159,-0.0158,-0.0158,-0.0116,-0.0115,-0.0115,-0.0081,-0.0081,-0.0081,-0.0081,0.0008,0.0011,0.0014,0,0,0,0,0,0,0,0,0,0,0,0,0,-0.0153,-0.0175,-0.0159,-0.0137,-0.0134,-0.0116,-0.0115,-0.0115,-0.0082,-0.0081,-0.0081,-0.008,0.0008,0.0011,0.0014,0.0026,0,0,0.0024,0.0025,0,0,0,0,0,0,0,0,-0.0154,-0.0152,-0.014,-0.0138,-0.0135,-0.0104,-0.0088,-0.0065,-0.0082,-0.0101,-0.0081,-0.008,-0.0025,-0.0019,-0.0012,0.003,0.0034,0.0024,0.0026,0.0027,0.0028,0,0,0,0,0,0,0,-0.0156,-0.0154,-0.0141,-0.014,-0.0137,-0.0117,-0.0113,-0.0084,-0.0064,-0.0099,-0.0097,-0.0093,-0.0023,-0.0015,-0.0009,0.0036,0.0024,0.0027,0.0029,0.003,0.0095,0.0095,0,0,0,0,0,0,-0.0165,-0.0156,-0.0142,-0.014,-0.0145,-0.0117,-0.0113,-0.0114,-0.0065,-0.0058,-0.0094,-0.0092,-0.0021,-0.0013,-0.0006,0.0008,0.0027,0.003,0.0032,0.0096,0.0095,0.0095,0,0,0,0,0,0,-0.0166,-0.0165,-0.0144,-0.0147,-0.0143,-0.0117,-0.0118,-0.0113,-0.0107,-0.0062,-0.0054,-0.0093,-0.002,-0.001,0.0017,0.0012,0.0032,0.0035,0.0096,0.0095,0.0095,0.0038,0,0,0,0,0,0,-0.0167,-0.0165,-0.0171,-0.0148,-0.0143,-0.014,-0.0119,-0.0113,-0.0106,-0.0103,-0.0058,-0.0049,-0.0019,0.0012,0.002,0.0017,0.0037,0.0096,0.0096,0.0095,0.004,0.0036,0.0032,0,0,0,0,0,-0.0167,-0.0177,-0.0172,-0.017,-0.0152,-0.0141,-0.0137,-0.0116,-0.0106,-0.0108,-0.0076,-0.0051,0.0015,0.0014,0.0024,0.0021,0.0096,0.0096,0.0095,0.0042,0.0037,0.0032,0,0,0,0,0,0,-0.0187,-0.0174,-0.0168,-0.0173,-0.0162,-0.0136,-0.0137,-0.0122,-0.0099,-0.0096,-0.0052,-0.0041,-0.0021,0.0008,0.0006,0.0039,0.0059,0.0061,0.0016,0.0011,0.0007,-0.0002,0.004,0,0,0,0,0,-0.0196,-0.0201,-0.0183,-0.0189,-0.0186,-0.0163,-0.0157,-0.0144,-0.012,-0.011,-0.0079,-0.0045,-0.0016,0.0003,0.0031,0.0052,0.0086,0.0057,0.0052,0.0049,0.0048,0.0098,0.0098,0.0094,0.0094,0.0094,0,0,-0.0206,-0.0199,-0.0203,-0.0194,-0.0184,-0.0187,-0.0158,-0.0155,-0.0152,-0.0103,-0.0092,-0.006,-0.0015,0.0005,0.0017,0.0031,0.0066,0.0048,0.0045,0.0046,0.0098,0.0098,0.0099,0.0093,0.0093,0.0093,0,0,-0.0231,-0.0224,-0.0238,-0.0231,-0.0221,-0.0208,-0.021,-0.0189,-0.0174,-0.0159,-0.0124,-0.0095,-0.0053,-0.002,0.0003,-0.0005,0.0039,0.0001,-0.0021,0.0027,0.0028,0.003,0.0064,0.0068,0.0004,0.0004,0.0004,0,-0.0245,-0.0259,-0.024,-0.0249,-0.025,-0.0221,-0.0236,-0.0217,-0.0189,-0.0175,-0.0164,-0.0099,-0.0064,-0.0027,-0.0033,-0.0014,0.0016,-0.0008,0.0022,0.0024,0.0026,0.0061,0.0067,0.0001,0.0001,0.0002,0.0002,0,-0.0277,-0.0289,-0.0296,-0.0301,-0.0299,-0.0306,-0.0281,-0.0272,-0.0253,-0.0227,-0.0193,-0.0143,-0.0102,-0.0088,-0.0063,-0.0031,-0.0016,0.0006,0.0032,0.0023,0.0061,0.0068,-0.0003,-0.0002,-0.0001,-0.0,0,0,-0.0307,-0.0319,-0.0322,-0.0334,-0.0327,-0.0329,-0.0326,-0.0309,-0.03,-0.0263,-0.0243,-0.0192,-0.016,-0.0132,-0.0092,-0.005,-0.0014,-0.0021,-0.0017,0.0008,0.0084,0.0082,0.009,0.0014,0.0015,0.0016,0.01,0,-0.0341,-0.0376,-0.0369,-0.0399,-0.0416,-0.039,-0.0393,-0.037,-0.0336,-0.0307,-0.0243,-0.0211,-0.0176,-0.0158,-0.0111,-0.0036,0.0004,-0.004,0.0093,0.0096,0.0093,0.0098,0.002,0.0105,0.0107,0.0108,0.0109,0,-0.0375,-0.0395,-0.0438,-0.0453,-0.0458,-0.047,-0.0462,-0.0455,-0.04,-0.0372,-0.0317,-0.0263,-0.0197,-0.0169,-0.0043,-0.0073,-0.0004,0.0054,0.0059,0.0084,0.0108,0.0121,0.0123,0.0122,0.0121,0.012,0.0119,0,-0.041,-0.0439,-0.0479,-0.0484,-0.0499,-0.0509,-0.0511,-0.0477,-0.0467,-0.0405,-0.0387,-0.0295,-0.0249,-0.0149,-0.0029,-0.0034,0.0112,0.0124,0.0187,0.0188,0.0189,0.0187,0.021,0.021,0.021,0.0209,0.0209,0,-0.0443,-0.0472,-0.05,-0.0519,-0.0564,-0.0553,-0.0577,-0.0555,-0.0522,-0.0506,-0.0423,-0.038,-0.024,-0.0137,-0.0034,0.01,0.0113,0.0184,0.0213,0.0161,0.0156,0.0194,0.0191,0.0213,0.0212,0.0211,0.0211,0,-0.0472,-0.0491,-0.0539,-0.0572,-0.0585,-0.0615,-0.0632,-0.0636,-0.06,-0.0573,-0.0557,-0.0436,-0.03,-0.0159,0.0014,0.009,0.0219,0.0263,0.019,0.0213,0.0261,0.0254,0.0336,0.0337,0.0338,0.0338,0.0339,0,-0.0488,-0.0519,-0.0584,-0.062,-0.0639,-0.0679,-0.0705,-0.0683,-0.0677,-0.0599,-0.0583,-0.045,-0.0358,-0.0111,0.003,0.0225,0.025,0.0308,0.0287,0.0256,0.0276,0.0268,0.0261,0.034,0.034,0.034,0.034,0,-0.0518,-0.055,-0.0589,-0.067,-0.0713,-0.0755,-0.0778,-0.0777,-0.0737,-0.0708,-0.0585,-0.0445,-0.029,-0.0103,0.0049,0.0188,0.0265,0.0314,0.0314,0.0295,0.0261,0.0278,0.027,0.0342,0.0342,0.0342,0.0341,0,-0.0539,-0.0582,-0.0643,-0.0705,-0.0767,-0.0802,-0.0813,-0.0785,-0.0767,-0.0669,-0.0626,-0.0444,-0.0335,-0.0121,0.0022,0.0155,0.0183,0.0216,0.0221,0.022,0.0159,0.0098,0.0155,0,0,0,0,0,-0.0555,-0.0603,-0.067,-0.0737,-0.0796,-0.0824,-0.0848,-0.0843,-0.0803,-0.072,-0.0667,-0.0514,-0.0273,-0.0161,-0.0028,0.0012,0.0186,0.017,0.0221,0.0354,0.0351,0.0299,0,0,0,0,0,0,-0.0568,-0.0636,-0.067,-0.0742,-0.0786,-0.084,-0.0852,-0.0827,-0.077,-0.0709,-0.0577,-0.0492,-0.0261,-0.0347,-0.0026,0.0015,0.0063,0.0286,0.0289,0.0355,0.0353,0.0351,0.0296,0,0,0,0,0]}]]